Greeley, CO

2:12 PM MDT on April 23, 2017 (GMT -0600)
Greeley-Weld County

Weather History for KGXY - April, 2013

Change the Weather History Date:

Monday, April 22, 2013

  Actual Average Record
Temperature  
Mean Temperature 34 °F -  
Max Temperature 44 °F - 89 °F (1989)
Min Temperature 24 °F - 23 °F (1967)
Degree Days  
Heating Degree Days 31    
Month to date heating degree days  
Cooling Degree Days 0    
Month to date cooling degree days  
Moisture  
Dew Point 27 °F    
Average Humidity 77    
Maximum Humidity 87    
Minimum Humidity 60    
Precipitation  
Precipitation 0.01 in - 1.74 in (1971)
Sea Level Pressure  
Sea Level Pressure 30.10 in    
Wind  
Wind Speed 10 mph (NE)    
Max Wind Speed 31 mph    
Max Gust Speed 40 mph    
Visibility 6 miles    
Events      
T = Trace of Precipitation, MM = Missing Value Source: NWS Daily Summary

Daily Weather History Graph

Daily Weather History Graph

Search for Another Location

Airport or City:

Trip Planner

Search our weather history database for the weather conditions in past years. The results will help you decide how hot, cold, wet, or windy it might be!

Date:

Astronomy

Apr. 22, 2013 Rise Set
Actual Time 6:09 AM MDT 7:45 PM MDT
Civil Twilight 5:40 AM MDT 8:14 PM MDT
Nautical Twilight 5:05 AM MDT 8:48 PM MDT
Astronomical Twilight 4:29 AM MDT 9:26 PM MDT
Moon 4:36 PM MDT (4/22) 4:06 AM MDT (4/22)
Length of Visible Light 14h 33m
Length of Day
13h 35m
Waxing Gibbous, 88% of the Moon is Illuminated
Apr 22
Waxing Gibbous
Apr 25
Full
May 2
Last Quarter
May 9
New
May 17
First Quarter

Hourly Weather History & Observations

Time (MDT) Temp. Windchill Dew Point Humidity Pressure Visibility Wind Dir Wind Speed Gust Speed Precip Events Conditions
12:15 AM 42.8 °F 38.0 °F 35.6 °F 76% 29.97 in 10.0 mi ESE 8.1 mph - N/A   Clear
12:35 AM 44.6 °F 39.2 °F 35.6 °F 71% 29.97 in 10.0 mi SE 10.4 mph - N/A   Mostly Cloudy
1:15 AM 44.6 °F - 35.6 °F 71% 29.96 in 10.0 mi Calm Calm - N/A   Overcast
1:35 AM 42.8 °F - 35.6 °F 76% 29.95 in 10.0 mi Calm Calm - N/A   Overcast
2:15 AM 42.8 °F - 35.6 °F 76% 29.92 in 10.0 mi Calm Calm - N/A   Scattered Clouds
2:35 AM 41.0 °F 37.1 °F 35.6 °F 81% 29.92 in 10.0 mi NE 5.8 mph - N/A   Clear
3:15 AM 41.0 °F 38.0 °F 35.6 °F 81% 29.91 in 10.0 mi ESE 4.6 mph - N/A   Scattered Clouds
3:35 AM 41.0 °F 36.4 °F 35.6 °F 81% 29.91 in 10.0 mi SE 6.9 mph - N/A   Mostly Cloudy
3:55 AM 41.0 °F 38.0 °F 35.6 °F 81% 29.90 in 10.0 mi ENE 4.6 mph - N/A   Mostly Cloudy
4:15 AM 41.0 °F 35.2 °F 35.6 °F 81% 29.92 in 10.0 mi NNW 9.2 mph - N/A   Overcast
4:35 AM 41.0 °F 33.1 °F 35.6 °F 81% 29.95 in 10.0 mi NNW 15.0 mph - N/A   Overcast
5:15 AM 42.8 °F 38.6 °F 37.4 °F 81% 29.94 in 10.0 mi ESE 6.9 mph - N/A   Overcast
5:35 AM 41.0 °F 35.2 °F 35.6 °F 81% 29.92 in 10.0 mi SE 9.2 mph - N/A   Mostly Cloudy
5:55 AM 41.0 °F 37.1 °F 35.6 °F 81% 29.90 in 10.0 mi South 5.8 mph - N/A   Partly Cloudy
6:15 AM 39.2 °F - 35.6 °F 87% 29.92 in 10.0 mi Calm Calm - N/A   Clear
6:35 AM 37.4 °F 33.8 °F 33.8 °F 87% 29.93 in 10.0 mi North 4.6 mph - N/A   Clear
6:55 AM 39.2 °F - 33.8 °F 81% 29.93 in 10.0 mi Calm Calm - N/A   Clear
7:15 AM 39.2 °F 35.9 °F 35.6 °F 87% 29.93 in 10.0 mi NW 4.6 mph - N/A   Clear
7:35 AM 41.0 °F - 37.4 °F 87% 29.93 in 10.0 mi Calm Calm - N/A   Clear
7:55 AM 42.8 °F 38.6 °F 37.4 °F 81% 29.95 in 10.0 mi NNW 6.9 mph - N/A   Partly Cloudy
8:15 AM 39.2 °F 29.0 °F 33.8 °F 81% 29.98 in 10.0 mi North 21.9 mph 27.6 mph N/A   Mostly Cloudy
8:35 AM 41.0 °F 32.2 °F 33.8 °F 76% 29.99 in 10.0 mi North 18.4 mph - N/A   Overcast
8:55 AM 39.2 °F 29.3 °F 32.0 °F 75% 30.00 in 10.0 mi NNE 20.7 mph 27.6 mph N/A   Mostly Cloudy
9:15 AM 39.2 °F 28.5 °F 30.2 °F 70% 30.00 in 10.0 mi North 24.2 mph 27.6 mph N/A   Overcast
9:35 AM 39.2 °F 28.0 °F 28.4 °F 65% 30.01 in 10.0 mi NNE 26.5 mph 29.9 mph N/A   Overcast
9:55 AM 39.2 °F 28.0 °F 26.6 °F 61% 30.02 in 10.0 mi North 26.5 mph 34.5 mph N/A   Overcast
10:15 AM 37.4 °F 25.0 °F 24.8 °F 60% 30.03 in 10.0 mi North 29.9 mph 40.3 mph N/A   Overcast
10:35 AM 37.4 °F 25.9 °F 24.8 °F 60% 30.05 in 10.0 mi North 25.3 mph 36.8 mph N/A   Overcast
10:55 AM 35.6 °F 22.3 °F 24.8 °F 65% 30.06 in 10.0 mi North 31.1 mph 40.3 mph N/A   Overcast
11:15 AM 33.8 °F 20.8 °F 23.0 °F 65% 30.07 in 10.0 mi North 26.5 mph 38.0 mph N/A   Overcast
11:35 AM 32.0 °F 19.2 °F 23.0 °F 69% 30.09 in 10.0 mi NNE 23.0 mph 34.5 mph N/A   Overcast
11:55 AM 32.0 °F 18.9 °F 21.2 °F 64% 30.11 in 10.0 mi NNE 24.2 mph 32.2 mph N/A   Overcast
12:15 PM 30.2 °F 17.8 °F 21.2 °F 69% 30.13 in 10.0 mi NNE 19.6 mph 28.8 mph N/A   Overcast
12:35 PM 30.2 °F 16.8 °F 21.2 °F 69% 30.12 in 1.5 mi NNE 23.0 mph - N/A   Overcast
12:55 PM - - - N/A% - 0.2 mi North - - N/A   Overcast
1:15 PM - - - N/A% - 0.5 mi North - - N/A   Overcast
1:55 PM 28.4 °F - 21.2 °F 74% 30.15 in 2.0 mi North - - N/A   Overcast
2:15 PM 28.4 °F 15.1 °F 23.0 °F 80% 30.17 in 2.0 mi NNE 20.7 mph 25.3 mph N/A   Overcast
2:35 PM 28.4 °F 16.2 °F 21.2 °F 74% 30.15 in 1.8 mi NE 17.3 mph - N/A   Overcast
2:55 PM 28.4 °F 15.8 °F 23.0 °F 80% 30.18 in 2.5 mi NNE 18.4 mph - N/A   Overcast
3:35 PM - - - N/A% 30.18 in 2.0 mi NE 13.8 mph - N/A   Overcast
3:55 PM 28.4 °F 18.0 °F 21.2 °F 74% 30.21 in 1.0 mi NE 12.7 mph - N/A   Overcast
4:15 PM 28.4 °F 18.0 °F 21.2 °F 74% 30.21 in 1.8 mi NE 12.7 mph - N/A   Overcast
4:35 PM 28.4 °F 18.0 °F 21.2 °F 74% 30.20 in 2.5 mi NE 12.7 mph - N/A   Mostly Cloudy
4:55 PM 28.4 °F 18.0 °F 21.2 °F 74% 30.21 in 1.5 mi NNE 12.7 mph 17.3 mph N/A   Overcast
5:15 PM 26.6 °F 15.7 °F 21.2 °F 80% 30.22 in 0.8 mi NNE 12.7 mph 17.3 mph N/A   Overcast
5:35 PM 26.6 °F 15.7 °F 21.2 °F 80% 30.21 in 1.5 mi NE 12.7 mph - N/A   Overcast
5:55 PM 26.6 °F - 21.2 °F 80% 30.23 in 0.5 mi North - - N/A   Overcast
6:15 PM - - - N/A% - 3.0 mi North - - N/A   Overcast
6:35 PM 26.6 °F 18.2 °F 21.2 °F 80% 30.23 in 3.0 mi NE 8.1 mph - N/A   Overcast
6:55 PM 26.6 °F 19.1 °F 21.2 °F 80% 30.25 in 0.8 mi NE 6.9 mph - N/A   Overcast
7:15 PM - - - N/A% 30.25 in 1.0 mi NNE 9.2 mph - N/A   Overcast
7:35 PM 26.6 °F 20.0 °F 21.2 °F 80% 30.28 in 0.2 mi North 5.8 mph - N/A   Overcast
7:55 PM 26.6 °F 19.1 °F 21.2 °F 80% 30.27 in 0.8 mi NE 6.9 mph - N/A   Overcast
8:15 PM 26.6 °F 18.2 °F 21.2 °F 80% 30.30 in 1.0 mi North 8.1 mph - 0.01 in   Overcast
8:35 PM 24.8 °F 12.9 °F 19.4 °F 80% 30.28 in 1.0 mi NE 13.8 mph - 0.01 in   Overcast
8:55 PM 24.8 °F 15.3 °F 19.4 °F 80% 30.27 in 2.5 mi NE 9.2 mph - 0.01 in   Overcast
9:15 PM 24.8 °F 17.9 °F 21.2 °F 86% 30.30 in 3.0 mi ENE 5.8 mph - N/A   Overcast
9:35 PM 24.8 °F 20.5 °F 19.4 °F 80% 30.30 in 5.0 mi ENE 3.5 mph - N/A   Overcast
9:55 PM 24.8 °F 20.5 °F 19.4 °F 80% 30.30 in 3.0 mi ENE 3.5 mph - N/A   Overcast
10:15 PM 24.8 °F 16.9 °F 19.4 °F 80% 30.29 in 2.5 mi ENE 6.9 mph - N/A   Overcast
10:35 PM 24.8 °F 17.9 °F 19.4 °F 80% 30.31 in 2.5 mi NE 5.8 mph - N/A   Overcast
10:55 PM 24.8 °F 17.9 °F 19.4 °F 80% 30.30 in 3.0 mi NNE 5.8 mph - N/A   Overcast
11:15 PM 24.8 °F 15.3 °F 19.4 °F 80% 30.28 in 2.5 mi ENE 9.2 mph - N/A   Overcast
11:35 PM 24.8 °F 16.9 °F 19.4 °F 80% 30.28 in 3.0 mi East 6.9 mph - N/A   Overcast
11:55 PM 24.8 °F 16.9 °F 19.4 °F 80% 30.27 in 5.0 mi ENE 6.9 mph - N/A   Overcast